Regional Weather Roundup
Issued by NWS Charleston, WV

Home | Current Version | Previous Version | Graphics & Text | Print | Product List | Glossary On
Versions: 1 2 3 4 5 6 7 8 9 10 11 12 13 14 15 16 17 18 19 20 21 22 23 24 25 26 27 28 29 30 31 32 33 34 35 36 37 38 39 40 41 42 43 44 45 46 47 48 49
000
ASUS41 KRLX 291510
RWRRLX
West Virginia Regional Weather Roundup
National Weather Service Charleston WV
1100 AM EDT MON SEP 29 2014

Note: "fair" indicates few or no clouds below 12,000 feet with no
significant weather and/or obstructions to visibility.

WVZ003-291600-
Northern Panhandle of West Virginia

CITY           SKY/WX    TMP DP  RH WIND       PRES   REMARKS
WHEELING       SUNNY     68  59  73 CALM      30.04S
$$

WVZ009-291600-
Northwest West Virginia

CITY           SKY/WX    TMP DP  RH WIND       PRES   REMARKS
PARKERSBURG    CLOUDY    68  63  84 S5        30.05F
$$

WVZ006-291600-
Western West Virginia

CITY           SKY/WX    TMP DP  RH WIND       PRES   REMARKS
HUNTINGTON     CLOUDY    71  64  78 CALM      30.03F
$$

WVZ015-291600-
West Central West Virginia

CITY           SKY/WX    TMP DP  RH WIND       PRES   REMARKS
CHARLESTON     MOSUNNY   70  63  78 SW6       30.03F
$$

WVZ031-291600-
North Central West Virginia

CITY           SKY/WX    TMP DP  RH WIND       PRES   REMARKS
CLARKSBURG     CLOUDY    64  60  87 CALM      30.05F
MORGANTOWN     CLOUDY    69  58  67 CALM      30.06S
$$

WVZ035-042-045-291600-
South Central West Virginia

CITY           SKY/WX    TMP DP  RH WIND       PRES   REMARKS
BECKLEY        CLOUDY    65  59  81 W3        30.10F
BLUEFIELD      CLOUDY    65  59  81 SW6       30.13S
LEWISBURG      CLOUDY    63  60  89 CALM      30.10F
$$

WVZ047-291600-
Northern Mountains of West Virginia

CITY           SKY/WX    TMP DP  RH WIND       PRES   REMARKS
ELKINS         CLOUDY    61  58  90 CALM      30.09F
$$

WVZ052-291600-
Eastern Panhandle of West Virginia

CITY           SKY/WX    TMP DP  RH WIND       PRES   REMARKS
MARTINSBURG    CLOUDY    67  58  72 W3        30.03R
PETERSBURG     CLOUDY    62  58  88 CALM      30.07S
$$



USA.gov is the U.S. government's official web portal to all federal, state and local government web resources and services.